Iridium
NORAD ID: 25469
Int'l Code: 1998-051C
Perigee: 783.1 km
Apogee: 786.5 km
Inclination: 86.4 °
Period: 100.4 minutes
Semi major axis: 7155 km
Launch date: September 8, 1998
Source: United States (US)
Two Line Element Set (TLE):
1 25469U 98051C 13144.48712542 .00000451 00000-0 15400-3 0 2520
2 25469 086.3962 282.5308 0002373 109.8453 316.7698 14.34214379770030
Source: AFSPC
NASA's NSSDC Master Catalog entry for IRIDIUM 80